Météo par heure à Abalos

Ce jour, 5 Décembre, Samedi

Heure Température Précipitation Vent Pression Humidité
00:00 +1°C° 0 mm 2 m/s 700 mmHg 84%
01:00 +1°C° 0.2 mm 2 m/s 700 mmHg 84%
02:00 +1°C° 0.2 mm 2 m/s 700 mmHg 84%
03:00 +1°C° 0.2 mm 2 m/s 700 mmHg 84%
04:00 +1°C° 0 mm 2 m/s 700 mmHg 84%
05:00 -1°C° 0 mm 2 m/s 701 mmHg 85%
06:00 -1°C° 0 mm 2 m/s 701 mmHg 85%
07:00 -1°C° 0 mm 2 m/s 701 mmHg 81%
08:00 0°C° 0 mm 3 m/s 702 mmHg 78%
09:00 +1°C° 0 mm 3 m/s 702 mmHg 75%
10:00 +1°C° 0.3 mm 4 m/s 702 mmHg 73%
11:00 +3°C° 0.3 mm 4 m/s 702 mmHg 72%
12:00 +3°C° 0.3 mm 5 m/s 702 mmHg 70%
13:00 +2°C° 1 mm 5 m/s 702 mmHg 77%
14:00 +2°C° 1 mm 5 m/s 702 mmHg 84%
15:00 +3°C° 1 mm 4 m/s 702 mmHg 91%
16:00 +3°C° 1 mm 4 m/s 702 mmHg 92%
17:00 +3°C° 1 mm 4 m/s 703 mmHg 93%
18:00 +1°C° 1 mm 4 m/s 703 mmHg 94%
19:00 +1°C° 0.1 mm 4 m/s 704 mmHg 93%
20:00 +1°C° 0.1 mm 4 m/s 704 mmHg 93%
21:00 +1°C° 0.1 mm 4 m/s 705 mmHg 92%
22:00 0°C° 0.2 mm 4 m/s 705 mmHg 90%
23:00 0°C° 0.2 mm 4 m/s 705 mmHg 87%

Demain, 6 Décembre, Dimanche

Heure Température Précipitation Vent Pression Humidité
00:00 0°C° 0.2 mm 4 m/s 706 mmHg 85%
01:00 0°C° 0 mm 4 m/s 706 mmHg 84%
02:00 0°C° 0 mm 5 m/s 706 mmHg 82%
03:00 0°C° 0 mm 5 m/s 706 mmHg 81%
04:00 0°C° 0.1 mm 5 m/s 706 mmHg 81%
05:00 0°C° 0.1 mm 5 m/s 706 mmHg 82%
06:00 0°C° 0.1 mm 5 m/s 706 mmHg 82%
07:00 0°C° 1.2 mm 5 m/s 706 mmHg 83%
08:00 0°C° 1.2 mm 5 m/s 707 mmHg 84%
09:00 0°C° 1.2 mm 5 m/s 707 mmHg 85%
10:00 +1°C° 1.4 mm 5 m/s 707 mmHg 84%
11:00 +2°C° 1.4 mm 5 m/s 707 mmHg 83%
12:00 +2°C° 1.4 mm 5 m/s 707 mmHg 82%
13:00 +2°C° 0.9 mm 5 m/s 707 mmHg 82%
14:00 +3°C° 0.9 mm 5 m/s 707 mmHg 81%
15:00 +3°C° 0.9 mm 5 m/s 707 mmHg 81%
16:00 +3°C° 0.4 mm 4 m/s 707 mmHg 85%
17:00 +3°C° 0.4 mm 4 m/s 708 mmHg 89%
18:00 +1°C° 0.4 mm 4 m/s 708 mmHg 93%
19:00 +2°C° 0.6 mm 3 m/s 708 mmHg 92%
20:00 +2°C° 0.6 mm 3 m/s 708 mmHg 92%
21:00 +2°C° 0.6 mm 3 m/s 709 mmHg 91%
22:00 +2°C° 0.7 mm 3 m/s 709 mmHg 91%
23:00 +3°C° 0.7 mm 2 m/s 708 mmHg 91%

Après-demain, 7 Décembre, Lundi

Heure Température Précipitation Vent Pression Humidité
00:00 +3°C° 0.7 mm 2 m/s 708 mmHg 91%
01:00 +3°C° 0.4 mm 2 m/s 708 mmHg 92%
02:00 +3°C° 0.4 mm 2 m/s 707 mmHg 92%
03:00 +4°C° 0.4 mm 1 m/s 707 mmHg 93%
04:00 +5°C° 1.2 mm 1 m/s 706 mmHg 94%
05:00 +5°C° 1.2 mm 1 m/s 706 mmHg 95%
06:00 +4°C° 1.2 mm 2 m/s 705 mmHg 96%
07:00 +4°C° 1 mm 2 m/s 705 mmHg 96%
08:00 +4°C° 1 mm 2 m/s 705 mmHg 96%
09:00 +5°C° 1 mm 2 m/s 705 mmHg 96%
10:00 +4°C° 0.7 mm 3 m/s 705 mmHg 93%
11:00 +5°C° 0.7 mm 4 m/s 705 mmHg 89%
12:00 +6°C° 0.7 mm 5 m/s 706 mmHg 86%
13:00 +6°C° 0.4 mm 5 m/s 706 mmHg 87%
14:00 +6°C° 0.4 mm 4 m/s 705 mmHg 89%
15:00 +5°C° 0.4 mm 4 m/s 705 mmHg 90%
16:00 +5°C° 0.7 mm 4 m/s 706 mmHg 91%
17:00 +4°C° 0.7 mm 4 m/s 706 mmHg 92%
18:00 +4°C° 0.7 mm 4 m/s 706 mmHg 93%
19:00 +4°C° 0.6 mm 4 m/s 706 mmHg 93%
20:00 +4°C° 0.6 mm 3 m/s 706 mmHg 93%
21:00 +4°C° 0.6 mm 3 m/s 706 mmHg 93%
22:00 +3°C° 0.5 mm 3 m/s 706 mmHg 92%
23:00 +3°C° 0.5 mm 3 m/s 705 mmHg 91%

8 Décembre, Mardi

Heure Température Précipitation Vent Pression Humidité
00:00 +3°C° 0.5 mm 3 m/s 705 mmHg 90%
01:00 +3°C° 0.6 mm 4 m/s 705 mmHg 91%
02:00 +3°C° 0.6 mm 4 m/s 705 mmHg 92%
03:00 +2°C° 0.6 mm 5 m/s 705 mmHg 93%
04:00 +3°C° 0.4 mm 4 m/s 705 mmHg 93%
05:00 +1°C° 0.4 mm 4 m/s 706 mmHg 92%
06:00 +1°C° 0.4 mm 4 m/s 706 mmHg 92%
07:00 +1°C° 0.4 mm 4 m/s 706 mmHg 91%
08:00 +2°C° 0.4 mm 5 m/s 707 mmHg 89%
09:00 +2°C° 0.4 mm 5 m/s 707 mmHg 88%
10:00 +2°C° 0.4 mm 6 m/s 707 mmHg 85%
11:00 +3°C° 0.4 mm 7 m/s 707 mmHg 83%
12:00 +2°C° 0.4 mm 8 m/s 708 mmHg 80%
13:00 +3°C° 0.8 mm 7 m/s 708 mmHg 83%
14:00 +3°C° 0.8 mm 7 m/s 708 mmHg 87%
15:00 +3°C° 0.8 mm 6 m/s 709 mmHg 90%
16:00 +2°C° 0.3 mm 5 m/s 709 mmHg 91%
17:00 +3°C° 0.3 mm 4 m/s 710 mmHg 91%
18:00 +3°C° 0.3 mm 3 m/s 710 mmHg 92%
19:00 +3°C° 0.2 mm 3 m/s 711 mmHg 92%
20:00 +3°C° 0.2 mm 3 m/s 711 mmHg 92%
21:00 +1°C° 0.2 mm 4 m/s 711 mmHg 92%
22:00 +1°C° 1.3 mm 4 m/s 711 mmHg 93%
23:00 +1°C° 1.3 mm 4 m/s 712 mmHg 94%

9 Décembre, Mercredi

Heure Température Précipitation Vent Pression Humidité
00:00 +1°C° 1.3 mm 4 m/s 712 mmHg 95%
01:00 +2°C° 0.2 mm 3 m/s 712 mmHg 95%
02:00 +2°C° 0.2 mm 3 m/s 712 mmHg 96%
03:00 +2°C° 0.2 mm 3 m/s 712 mmHg 96%
04:00 +2°C° 0.1 mm 3 m/s 713 mmHg 95%
05:00 +2°C° 0.1 mm 3 m/s 713 mmHg 94%
06:00 +2°C° 0.1 mm 3 m/s 713 mmHg 93%
07:00 +2°C° 0.3 mm 3 m/s 713 mmHg 91%
08:00 +2°C° 0.3 mm 3 m/s 714 mmHg 89%
09:00 +2°C° 0.3 mm 3 m/s 714 mmHg 87%
10:00 +3°C° 0 mm 4 m/s 714 mmHg 83%
11:00 +4°C° 0 mm 4 m/s 714 mmHg 79%
12:00 +5°C° 0 mm 5 m/s 713 mmHg 76%
13:00 +5°C° 0.1 mm 4 m/s 713 mmHg 77%
14:00 +5°C° 0.1 mm 4 m/s 713 mmHg 78%
15:00 +5°C° 0.1 mm 3 m/s 712 mmHg 79%
16:00 +4°C° 0 mm 3 m/s 712 mmHg 80%
17:00 +4°C° 0 mm 3 m/s 712 mmHg 82%
18:00 +3°C° 0 mm 3 m/s 712 mmHg 83%
19:00 +3°C° 0.1 mm 3 m/s 711 mmHg 86%
20:00 +3°C° 0.1 mm 3 m/s 711 mmHg 89%
21:00 +3°C° 0.1 mm 3 m/s 711 mmHg 92%
22:00 +4°C° 1.1 mm 2 m/s 710 mmHg 93%
23:00 +5°C° 1.1 mm 2 m/s 709 mmHg 94%

10 Décembre, Jeudi

Heure Température Précipitation Vent Pression Humidité
00:00 +5°C° 1.1 mm 2 m/s 709 mmHg 94%
01:00 +5°C° 0.2 mm 2 m/s 708 mmHg 94%
02:00 +5°C° 0.2 mm 3 m/s 707 mmHg 94%
03:00 +5°C° 0.2 mm 3 m/s 706 mmHg 93%
04:00 +5°C° 0.6 mm 3 m/s 705 mmHg 94%
05:00 +7°C° 0.6 mm 3 m/s 705 mmHg 94%
06:00 +7°C° 0.6 mm 3 m/s 704 mmHg 95%
07:00 +7°C° 1.1 mm 3 m/s 703 mmHg 94%
08:00 +7°C° 1.1 mm 3 m/s 702 mmHg 94%
09:00 +6°C° 1.1 mm 4 m/s 701 mmHg 94%
10:00 +8°C° 1.6 mm 3 m/s 700 mmHg 94%
11:00 +8°C° 1.6 mm 3 m/s 700 mmHg 94%
12:00 +8°C° 1.6 mm 3 m/s 700 mmHg 94%
13:00 +9°C° 0.6 mm 3 m/s 700 mmHg 92%
14:00 +9°C° 0.6 mm 2 m/s 699 mmHg 91%
15:00 +10°C° 0.6 mm 2 m/s 699 mmHg 89%
16:00 +9°C° 0 mm 2 m/s 699 mmHg 91%
17:00 +8°C° 0 mm 2 m/s 699 mmHg 92%
18:00 +8°C° 0 mm 1 m/s 699 mmHg 93%
19:00 +8°C° 0 mm 1 m/s 699 mmHg 94%
20:00 +7°C° 0 mm 1 m/s 698 mmHg 94%
21:00 +7°C° 0 mm 1 m/s 698 mmHg 94%
22:00 +7°C° 0 mm 1 m/s 698 mmHg 94%
23:00 +7°C° 0 mm 1 m/s 698 mmHg 94%
Voir plus

Nous avons besoin de votre consentement

Meteoprog et ses fournisseurs de services peuvent stocker et accéder à des données personnelles telles que des cookies, des identifiants d'appareils ou d'autres technologies similaires sur votre appareil et traiter ces données pour personnaliser le contenu et les publicités, ainsi que pour fournir des fonctionnalités de médias sociaux et analyser le trafic.

  • Stocker et/ou accéder à des informations sur votre appareil

    Des cookies, des identifiants d'appareils ou d'autres informations peuvent être stockés ou accessibles sur votre appareil aux fins indiquées ci-dessus.

  • Annonces et contenus personnalisés, mesure des annonces et des contenus, connaissance de l'audience et développement de produits

    Les annonces et le contenu peuvent être personnalisés en fonction d'un profil. D'autres données peuvent être ajoutées pour mieux personnaliser les annonces et le contenu. Les performances des publicités et du contenu peuvent être mesurées. Il est possible d'obtenir des informations sur le public qui a vu les publicités et le contenu. Ces données peuvent être utilisées pour développer ou améliorer l'expérience de l'utilisateur, les systèmes et les logiciels.

En cliquant sur "J'accepte", vous autorisez l'utilisation de cookies, des identifiants d'appareils, des balises web ou d'autres technologies similaires. Vos paramètres peuvent être modifiés dans le navigateur de votre appareil.

Dans certains cas, des intérêts légitimes peuvent être invoqués plutôt qu'un consentement. Vous pouvez en savoir plus à ce sujet dans notre Politique de confidentialité et de cookies.